TimeAKDT,TemperatureF,Dew PointF,Humidity,Sea Level PressureIn,VisibilityMPH,Wind Direction,Wind SpeedMPH,Gust SpeedMPH,PrecipitationIn,Events,Conditions,WindDirDegrees,DateUTC
12:52 AM,1.9,-2.9,80,30.12,10.0,Variable,3.5,-,N/A,,Clear,0,2012-11-02 08:52:00
1:52 AM,-2.0,-7.1,79,30.11,10.0,NNW,3.5,-,N/A,,Clear,330,2012-11-02 09:52:00
2:52 AM,-5.1,-9.0,83,30.09,10.0,NNW,3.5,-,N/A,,Clear,340,2012-11-02 10:52:00
3:52 AM,-5.1,-9.9,80,30.07,10.0,North,4.6,-,N/A,,Clear,350,2012-11-02 11:52:00
4:52 AM,-4.0,-9.0,79,30.04,10.0,Calm,Calm,-,N/A,,Clear,0,2012-11-02 12:52:00
5:08 AM,-4.0,-9.4,78,30.01,10.0,Calm,Calm,-,N/A,,Scattered Clouds,0,2012-11-02 13:08:00
5:52 AM,-6.0,-11.0,79,30.02,10.0,NNW,4.6,-,N/A,,Clear,340,2012-11-02 13:52:00
6:03 AM,-5.8,-11.2,77,29.99,10.0,Calm,Calm,-,N/A,,Partly Cloudy,0,2012-11-02 14:03:00
6:20 AM,-5.8,-11.2,77,29.98,2.5,Calm,Calm,-,N/A,,Mostly Cloudy,0,2012-11-02 14:20:00
6:35 AM,-5.8,-11.2,77,29.97,4.0,North,4.6,-,N/A,,Partly Cloudy,350,2012-11-02 14:35:00
6:52 AM,-7.1,-11.0,83,29.99,10.0,NNW,3.5,-,N/A,,Partly Cloudy,340,2012-11-02 14:52:00
7:52 AM,-7.1,-11.9,79,29.98,10.0,NW,3.5,-,N/A,,Partly Cloudy,320,2012-11-02 15:52:00
8:52 AM,-6.0,-13.0,72,29.96,10.0,NNE,5.8,-,N/A,,Partly Cloudy,20,2012-11-02 16:52:00
9:52 AM,-8.0,-13.0,79,29.94,10.0,NNE,4.6,-,N/A,,Partly Cloudy,20,2012-11-02 17:52:00
10:20 AM,-7.6,-13.0,77,29.90,8.0,West,3.5,-,N/A,,Partly Cloudy,280,2012-11-02 18:20:00
10:42 AM,-5.8,-11.2,77,29.90,10.0,Calm,Calm,-,N/A,,Overcast,0,2012-11-02 18:42:00
10:52 AM,-6.0,-11.0,79,29.92,10.0,NW,3.5,-,N/A,,Overcast,310,2012-11-02 18:52:00
11:52 AM,1.9,-2.0,83,29.90,10.0,WNW,3.5,-,N/A,,Mostly Cloudy,300,2012-11-02 19:52:00
11:59 AM,3.2,-0.4,85,29.87,10.0,WNW,4.6,-,N/A,,Clear,300,2012-11-02 19:59:00
12:52 PM,8.1,5.0,87,29.88,10.0,West,5.8,-,N/A,,Clear,260,2012-11-02 20:52:00
1:52 PM,9.0,6.1,88,29.85,10.0,WNW,4.6,-,N/A,,Clear,290,2012-11-02 21:52:00
2:52 PM,14.0,7.0,74,29.82,10.0,Calm,Calm,-,N/A,,Partly Cloudy,0,2012-11-02 22:52:00
3:52 PM,12.9,5.0,71,29.81,10.0,Calm,Calm,-,N/A,,Clear,0,2012-11-02 23:52:00
4:52 PM,12.9,5.0,71,29.80,10.0,Calm,Calm,-,N/A,,Clear,0,2012-11-03 00:52:00
5:52 PM,6.1,1.0,80,29.79,10.0,Calm,Calm,-,N/A,,Clear,0,2012-11-03 01:52:00
6:52 PM,-0.9,-6.0,79,29.79,10.0,Calm,Calm,-,N/A,,Clear,0,2012-11-03 02:52:00
7:52 PM,-4.0,-8.0,83,29.79,10.0,NNW,5.8,-,N/A,,Clear,330,2012-11-03 03:52:00
8:52 PM,-4.0,-9.0,79,29.78,10.0,NW,5.8,-,N/A,,Clear,310,2012-11-03 04:52:00
9:52 PM,-6.0,-9.9,83,29.79,10.0,Variable,3.5,-,N/A,,Clear,0,2012-11-03 05:52:00
10:52 PM,-5.1,-9.9,80,29.81,10.0,Calm,Calm,-,N/A,,Clear,0,2012-11-03 06:52:00
11:52 PM,-5.1,-9.9,80,29.82,10.0,North,4.6,-,N/A,,Clear,350,2012-11-03 07:52:00